| time (UTC) | temp F | wind direction | speed knots | gust knots | rain 1hr in | rain 24hr in | rain mn in | humidity % | barometer mb |
| 20260509041525 | 65 | 178 | 0.9 | 4.3 | 0.00 | 0.28 | 0.26 | 78 | 1002.9 |
| 20260509040035 | 66 | 332 | 2.6 | 5.2 | 0.00 | 0.28 | 0.26 | 79 | 1003.0 |
| 20260509034524 | 66 | 177 | 0.9 | 7.8 | 0.00 | 0.28 | 0.26 | 77 | 1002.9 |
| 20260509033023 | 67 | 135 | 2.6 | 5.2 | 0.00 | 0.28 | 0.26 | 76 | 1003.0 |
| 20260509031527 | 68 | 248 | 2.6 | 8.7 | 0.00 | 0.28 | 0.26 | 74 | 1002.9 |
| 20260509030018 | 68 | 325 | 3.5 | 7.8 | 0.00 | 0.28 | 0.26 | 75 | 1003.0 |
| 20260509024517 | 69 | 249 | 1.7 | 4.3 | 0.00 | 0.33 | 0.26 | 74 | 1003.2 |
| 20260509023015 | 67 | 316 | 0.9 | 4.3 | 0.00 | 0.33 | 0.26 | 80 | 1003.2 |
| 20260509021517 | 67 | 81 | 3.5 | 7.0 | 0.00 | 0.33 | 0.26 | 77 | 1003.3 |
| 20260509020012 | 67 | 193 | 2.6 | 5.2 | 0.00 | 0.33 | 0.26 | 78 | 1003.5 |
| 20260509014527 | 66 | 188 | 1.7 | 5.2 | 0.00 | 0.33 | 0.26 | 81 | 1003.6 |
| 20260509013009 | 65 | 187 | 0.9 | 3.5 | 0.00 | 0.33 | 0.26 | 80 | 1003.7 |
| 20260509011505 | 66 | 284 | 1.7 | 5.2 | 0.00 | 0.33 | 0.26 | 79 | 1004.0 |
| 20260509010003 | 68 | 218 | 3.5 | 9.6 | 0.00 | 0.33 | 0.26 | 72 | 1004.2 |
| 20260509004612 | 69 | 268 | 2.6 | 4.3 | 0.00 | 0.43 | 0.26 | 74 | 1004.2 |
| 20260509003103 | 68 | 173 | 1.7 | 6.1 | 0.00 | 0.43 | 0.26 | 76 | 1004.5 |
| 20260509001553 | 66 | 231 | 1.7 | 5.2 | 0.00 | 0.43 | 0.26 | 78 | 1004.8 |
| 20260509000051 | 66 | 245 | 3.5 | 9.6 | 0.00 | 0.43 | 0.26 | 76 | 1005.0 |
| 20260508234554 | 67 | 238 | 3.5 | 7.0 | 0.00 | 0.44 | 0.26 | 76 | 1005.2 |
| 20260508233054 | 68 | 229 | 3.5 | 7.0 | 0.00 | 0.44 | 0.26 | 76 | 1005.4 |
| 20260508231550 | 67 | 302 | 2.6 | 6.1 | 0.00 | 0.44 | 0.26 | 78 | 1005.6 |
| 20260508230117 | 67 | 284 | 2.6 | 7.0 | 0.00 | 0.44 | 0.26 | 79 | 1005.8 |
| 20260508224549 | 67 | 89 | 1.7 | 7.8 | 0.00 | 0.44 | 0.26 | 80 | 1006.0 |
| 20260508223044 | 67 | 5 | 2.6 | 8.7 | 0.00 | 0.44 | 0.26 | 82 | 1006.1 |
| 20260508221541 | 66 | 101 | 1.7 | 6.1 | 0.00 | 0.44 | 0.26 | 85 | 1006.1 |
| 20260508220109 | 65 | 285 | 1.7 | 6.1 | 0.00 | 0.44 | 0.26 | 88 | 1006.1 |
| 20260508214539 | 64 | 89 | 2.6 | 6.1 | 0.00 | 0.44 | 0.26 | 91 | 1006.2 |
| 20260508213038 | 63 | 221 | 1.7 | 5.2 | 0.00 | 0.44 | 0.26 | 95 | 1006.3 |
| 20260508211542 | 61 | 152 | 0.0 | 2.6 | 0.00 | 0.44 | 0.26 | 96 | 1006.3 |
| 20260508210036 | 60 | 191 | 0.9 | 3.5 | 0.00 | 0.44 | 0.26 | 96 | 1006.2 |
| 20260508204535 | 60 | 149 | 0.0 | 2.6 | 0.00 | 0.44 | 0.26 | 96 | 1006.3 |
| 20260508203034 | 60 | 108 | 0.0 | 1.7 | 0.00 | 0.44 | 0.26 | 97 | 1006.3 |
| 20260508201535 | 59 | 170 | 0.0 | 0.9 | 0.00 | 0.44 | 0.26 | 97 | 1006.3 |
| 20260508200035 | 58 | 170 | 0.0 | 4.3 | 0.00 | 0.44 | 0.26 | 97 | 1006.2 |
| 20260508194535 | 58 | 124 | 0.0 | 0.0 | 0.00 | 0.44 | 0.26 | 97 | 1006.1 |
| 20260508193031 | 57 | 124 | 0.0 | 0.0 | 0.00 | 0.44 | 0.26 | 97 | 1006.0 |
| 20260508191531 | 58 | 124 | 0.0 | 1.7 | 0.00 | 0.44 | 0.26 | 97 | 1006.0 |
| 20260508190034 | 57 | 108 | 0.0 | 2.6 | 0.00 | 0.44 | 0.26 | 96 | 1005.8 |
| 20260508184539 | 58 | 121 | 0.0 | 1.7 | 0.00 | 0.44 | 0.26 | 97 | 1005.8 |
| 20260508183027 | 57 | 122 | 0.0 | 0.9 | 0.00 | 0.44 | 0.26 | 96 | 1005.8 |
| 20260508181535 | 58 | 121 | 0.0 | 0.0 | 0.00 | 0.44 | 0.26 | 96 | 1005.8 |
| 20260508180022 | 59 | 121 | 0.0 | 0.9 | 0.00 | 0.44 | 0.26 | 96 | 1005.9 |
| 20260508174530 | 59 | 121 | 0.0 | 0.9 | 0.00 | 0.44 | 0.26 | 96 | 1005.8 |
| 20260508173018 | 60 | 120 | 0.0 | 0.9 | 0.00 | 0.44 | 0.26 | 96 | 1005.8 |
| 20260508171517 | 59 | 335 | 1.7 | 5.2 | 0.00 | 0.44 | 0.26 | 96 | 1005.7 |
| 20260508170016 | 59 | 124 | 0.0 | 0.9 | 0.00 | 0.44 | 0.26 | 96 | 1005.4 |
| 20260508164515 | 60 | 124 | 0.0 | 0.9 | 0.01 | 0.44 | 0.26 | 96 | 1005.2 |
| 20260508163017 | 60 | 124 | 0.0 | 0.9 | 0.01 | 0.44 | 0.26 | 96 | 1005.2 |
| 20260508161513 | 60 | 125 | 0.0 | 1.7 | 0.02 | 0.44 | 0.26 | 96 | 1005.6 |
| 20260508160009 | 60 | 123 | 0.0 | 0.0 | 0.03 | 0.44 | 0.26 | 96 | 1005.6 |
| 20260508154509 | 60 | 122 | 0.0 | 0.9 | 0.05 | 0.43 | 0.25 | 96 | 1005.7 |
| 20260508153005 | 60 | 120 | 0.0 | 0.9 | 0.05 | 0.43 | 0.25 | 96 | 1006.0 |
| 20260508151505 | 60 | 121 | 0.0 | 0.9 | 0.06 | 0.43 | 0.24 | 96 | 1006.5 |
| 20260508150004 | 60 | 121 | 0.0 | 0.9 | 0.21 | 0.41 | 0.23 | 95 | 1006.6 |
| 20260508144502 | 61 | 183 | 0.0 | 2.6 | 0.20 | 0.39 | 0.20 | 95 | 1006.4 |
| 20260508143100 | 62 | 161 | 0.9 | 3.5 | 0.20 | 0.39 | 0.20 | 95 | 1006.6 |
| 20260508141600 | 62 | 68 | 2.6 | 8.7 | 0.18 | 0.38 | 0.19 | 94 | 1006.9 |
| 20260508140051 | 64 | 285 | 3.5 | 13.0 | 0.01 | 0.20 | 0.02 | 93 | 1006.8 |
| 20260508134559 | 65 | 32 | 6.1 | 15.6 | 0.00 | 0.24 | 0.01 | 94 | 1006.0 |
| 20260508133047 | 65 | 271 | 6.1 | 15.6 | 0.01 | 0.24 | 0.01 | 94 | 1006.3 |
| 20260508131545 | 66 | 337 | 7.8 | 14.8 | 0.01 | 0.24 | 0.01 | 93 | 1006.5 |
| 20260508130041 | 66 | 35 | 5.2 | 13.9 | 0.01 | 0.24 | 0.01 | 93 | 1006.7 |
| 20260508124540 | 66 | 96 | 7.0 | 11.3 | 0.01 | 0.28 | 0.01 | 93 | 1006.7 |
| 20260508123037 | 66 | 134 | 4.3 | 11.3 | 0.00 | 0.27 | 0.00 | 93 | 1006.7 |
| 20260508121540 | 66 | 28 | 6.1 | 12.2 | 0.00 | 0.27 | 0.00 | 93 | 1007.5 |
| 20260508120031 | 66 | 68 | 5.2 | 11.3 | 0.00 | 0.27 | 0.00 | 93 | 1007.8 |
| 20260508114529 | 66 | 84 | 3.5 | 10.4 | 0.00 | 0.27 | 0.27 | 93 | 1008.1 |
| 20260508113028 | 65 | 8 | 3.5 | 7.8 | 0.02 | 0.27 | 0.27 | 93 | 1008.4 |
| 20260508111526 | 65 | 86 | 3.5 | 9.6 | 0.02 | 0.27 | 0.27 | 94 | 1008.5 |
| 20260508110024 | 65 | 70 | 2.6 | 9.6 | 0.02 | 0.27 | 0.27 | 94 | 1009.1 |
| 20260508104523 | 65 | 25 | 3.5 | 7.0 | 0.02 | 0.27 | 0.27 | 93 | 1009.1 |
| 20260508103025 | 65 | 25 | 4.3 | 13.9 | 0.01 | 0.25 | 0.25 | 92 | 1009.7 |
| 20260508101521 | 65 | 239 | 4.3 | 8.7 | 0.00 | 0.24 | 0.24 | 93 | 1009.9 |
| 20260508100019 | 65 | 311 | 1.7 | 7.8 | 0.00 | 0.24 | 0.24 | 93 | 1010.1 |
| 20260508094515 | 65 | 113 | 1.7 | 8.7 | 0.00 | 0.24 | 0.24 | 92 | 1010.3 |
| 20260508093014 | 65 | 295 | 3.5 | 13.0 | 0.00 | 0.24 | 0.24 | 92 | 1010.2 |
| 20260508091512 | 65 | 113 | 4.3 | 10.4 | 0.00 | 0.24 | 0.24 | 93 | 1010.5 |
| 20260508090010 | 65 | 70 | 1.7 | 7.8 | 0.00 | 0.24 | 0.24 | 93 | 1010.6 |
| 20260508084508 | 65 | 168 | 2.6 | 9.6 | 0.00 | 0.24 | 0.24 | 94 | 1010.9 |
| 20260508083006 | 65 | 33 | 1.7 | 7.0 | 0.00 | 0.24 | 0.24 | 94 | 1011.0 |
| 20260508081515 | 65 | 107 | 1.7 | 7.8 | 0.00 | 0.24 | 0.24 | 94 | 1011.1 |
| 20260508080006 | 64 | 105 | 1.7 | 8.7 | 0.00 | 0.24 | 0.24 | 93 | 1010.9 |
| 20260508074505 | 64 | 73 | 2.6 | 7.0 | 0.00 | 0.24 | 0.24 | 93 | 1011.1 |
| 20260508073003 | 64 | 98 | 1.7 | 6.1 | 0.00 | 0.24 | 0.24 | 94 | 1011.2 |
| 20260508071502 | 64 | 46 | 0.9 | 5.2 | 0.00 | 0.24 | 0.24 | 93 | 1011.4 |
| 20260508070104 | 64 | 147 | 3.5 | 8.7 | 0.00 | 0.24 | 0.24 | 93 | 1011.7 |
| 20260508064700 | 64 | 176 | 1.7 | 8.7 | 0.00 | 0.24 | 0.24 | 92 | 1011.4 |
| 20260508063106 | 65 | 72 | 3.5 | 8.7 | 0.00 | 0.24 | 0.24 | 91 | 1011.9 |
| 20260508061557 | 65 | 342 | 2.6 | 7.0 | 0.00 | 0.24 | 0.24 | 90 | 1012.2 |
| 20260508060056 | 65 | 125 | 2.6 | 7.8 | 0.00 | 0.24 | 0.24 | 91 | 1012.4 |
| 20260508054553 | 65 | 8 | 2.6 | 7.8 | 0.00 | 0.24 | 0.24 | 91 | 1012.6 |
| 20260508053055 | 65 | 109 | 1.7 | 8.7 | 0.00 | 0.24 | 0.24 | 91 | 1012.6 |
| 20260508051552 | 65 | 110 | 1.7 | 7.0 | 0.00 | 0.24 | 0.24 | 91 | 1013.1 |
| 20260508050051 | 65 | 127 | 1.7 | 6.1 | 0.00 | 0.24 | 0.24 | 91 | 1013.0 |
| 20260508044547 | 65 | 59 | 0.9 | 7.8 | 0.00 | 0.24 | 0.24 | 91 | 1013.4 |
| 20260508043045 | 65 | 47 | 2.6 | 7.8 | 0.00 | 0.24 | 0.24 | 91 | 1013.3 |